Time,TemperatureF,DewpointF,PressureIn,WindDirection,WindDirectionDegrees,WindSpeedMPH,WindSpeedGustMPH,Humidity,HourlyPrecipIn,Conditions,Clouds,dailyrainin,SoftwareType,DateUTC
2013-03-11 00:00:00,32.0,-20.3,0.00,North,0,0.0,0.0,9,0.00,,,-99.99,,2013-03-11 04:00:00,
2013-03-11 00:04:00,42.4,26.8,30.29,North,0,0.0,0.0,53,0.00,,,-99.99,,2013-03-11 04:04:00,
2013-03-11 00:10:00,42.4,27.2,30.29,North,0,0.0,0.0,54,0.00,,,-99.99,,2013-03-11 04:10:00,
2013-03-11 00:12:00,42.4,27.2,30.29,North,0,0.0,0.0,54,0.00,,,-99.99,,2013-03-11 04:12:00,
2013-03-11 00:18:00,42.4,27.7,30.29,North,0,0.0,0.0,55,0.00,,,-99.99,,2013-03-11 04:18:00,
2013-03-11 00:24:00,42.3,27.6,30.29,North,0,0.0,0.0,55,0.00,,,-99.99,,2013-03-11 04:24:00,
2013-03-11 00:26:00,42.3,27.6,30.29,North,0,0.0,0.0,55,0.00,,,-99.99,,2013-03-11 04:26:00,
2013-03-11 00:32:00,41.9,27.7,30.29,North,0,0.0,0.0,56,0.00,,,-99.99,,2013-03-11 04:32:00,
2013-03-11 00:38:00,41.7,27.9,30.29,North,0,0.0,0.0,57,0.00,,,-99.99,,2013-03-11 04:38:00,
2013-03-11 00:44:00,41.5,28.2,30.26,North,0,0.0,0.0,58,0.00,,,-99.99,,2013-03-11 04:44:00,
2013-03-11 00:50:00,41.5,28.6,30.26,North,0,0.0,0.0,59,0.00,,,-99.99,,2013-03-11 04:50:00,
2013-03-11 00:56:00,41.5,29.0,30.26,North,0,0.0,0.0,60,0.00,,,-99.99,,2013-03-11 04:56:00,
2013-03-11 01:02:00,41.4,29.3,30.26,North,0,0.0,0.0,61,0.00,,,-99.99,,2013-03-11 05:02:00,
2013-03-11 01:08:00,41.4,29.3,30.26,North,0,0.0,0.0,61,0.00,,,-99.99,,2013-03-11 05:08:00,
2013-03-11 01:14:00,41.7,30.0,30.26,North,0,0.0,0.0,62,0.00,,,-99.99,,2013-03-11 05:14:00,
2013-03-11 01:20:00,42.1,30.7,30.26,North,0,0.0,0.0,63,0.00,,,-99.99,,2013-03-11 05:20:00,
2013-03-11 01:26:00,42.3,31.3,30.26,North,0,0.0,0.0,64,0.00,,,-99.99,,2013-03-11 05:26:00,
2013-03-11 01:32:00,42.6,32.0,30.26,North,0,0.0,0.0,65,0.00,,,-99.99,,2013-03-11 05:32:00,
2013-03-11 01:38:00,42.8,32.2,30.26,North,0,0.0,0.0,65,0.00,,,-99.99,,2013-03-11 05:38:00,
2013-03-11 01:44:00,43.0,32.7,30.26,North,0,0.0,0.0,66,0.00,,,-99.99,,2013-03-11 05:44:00,
2013-03-11 01:50:00,43.0,33.1,30.26,North,0,0.0,0.0,67,0.00,,,-99.99,,2013-03-11 05:50:00,
2013-03-11 01:56:00,43.0,33.1,30.26,North,0,0.0,0.0,67,0.00,,,-99.99,,2013-03-11 05:56:00,
2013-03-11 02:02:00,43.0,33.4,30.26,North,0,0.0,0.0,68,0.00,,,-99.99,,2013-03-11 06:02:00,
2013-03-11 02:08:00,43.0,33.4,30.26,North,0,0.0,0.0,68,0.00,,,-99.99,,2013-03-11 06:08:00,
2013-03-11 02:14:00,42.8,33.3,30.23,North,0,0.0,0.0,68,0.00,,,-99.99,,2013-03-11 06:14:00,
2013-03-11 02:20:00,42.8,33.6,30.23,North,0,0.0,0.0,69,0.00,,,-99.99,,2013-03-11 06:20:00,
2013-03-11 02:26:00,42.8,33.6,30.23,North,0,0.0,0.0,69,0.00,,,-99.99,,2013-03-11 06:26:00,
2013-03-11 02:32:00,42.6,33.7,30.26,North,0,0.0,0.0,70,0.00,,,-99.99,,2013-03-11 06:32:00,
2013-03-11 02:38:00,42.6,34.1,30.26,North,0,0.0,0.0,71,0.00,,,-99.99,,2013-03-11 06:38:00,
2013-03-11 02:44:00,42.6,34.1,30.26,North,0,0.0,0.0,71,0.00,,,-99.99,,2013-03-11 06:44:00,
2013-03-11 02:50:00,42.6,34.4,30.26,North,0,0.0,0.0,72,0.00,,,-99.99,,2013-03-11 06:50:00,
2013-03-11 02:56:00,42.6,34.4,30.26,North,0,0.0,0.0,72,0.00,,,-99.99,,2013-03-11 06:56:00,
2013-03-11 03:02:00,42.4,34.5,30.23,North,0,0.0,0.0,73,0.00,,,-99.99,,2013-03-11 07:02:00,
2013-03-11 03:08:00,42.4,34.5,30.23,North,0,0.0,0.0,73,0.00,,,-99.99,,2013-03-11 07:08:00,
2013-03-11 03:14:00,42.4,34.5,30.23,North,0,0.0,0.0,73,0.00,,,-99.99,,2013-03-11 07:14:00,
2013-03-11 03:20:00,42.3,34.4,30.23,North,0,0.0,0.0,73,0.00,,,-99.99,,2013-03-11 07:20:00,
2013-03-11 03:26:00,42.3,34.4,30.23,North,0,0.0,0.0,73,0.00,,,-99.99,,2013-03-11 07:26:00,
2013-03-11 03:32:00,42.3,34.8,30.20,North,0,0.0,0.0,74,0.00,,,-99.99,,2013-03-11 07:32:00,
2013-03-11 03:38:00,42.3,34.8,30.20,North,0,0.0,0.0,74,0.00,,,-99.99,,2013-03-11 07:38:00,
2013-03-11 03:44:00,42.3,34.8,30.20,North,0,0.0,0.0,74,0.00,,,-99.99,,2013-03-11 07:44:00,
2013-03-11 03:50:00,42.3,35.1,30.20,North,0,0.0,0.0,75,0.00,,,-99.99,,2013-03-11 07:50:00,
2013-03-11 03:56:00,42.1,34.9,30.20,North,0,0.0,0.0,75,0.00,,,-99.99,,2013-03-11 07:56:00,
2013-03-11 04:02:00,42.1,34.9,30.20,North,0,0.0,0.0,75,0.00,,,-99.99,,2013-03-11 08:02:00,
2013-03-11 04:08:00,42.1,35.2,30.20,North,0,0.0,0.0,76,0.00,,,-99.99,,2013-03-11 08:08:00,
2013-03-11 04:14:00,42.3,35.4,30.20,North,0,0.0,0.0,76,0.00,,,-99.99,,2013-03-11 08:14:00,
2013-03-11 04:20:00,42.3,35.4,30.20,North,0,0.0,0.0,76,0.00,,,-99.99,,2013-03-11 08:20:00,
2013-03-11 04:26:00,42.3,35.7,30.20,North,0,0.0,0.0,77,0.00,,,-99.99,,2013-03-11 08:26:00,
2013-03-11 04:32:00,42.3,35.7,30.20,North,0,0.0,0.0,77,0.00,,,-99.99,,2013-03-11 08:32:00,
2013-03-11 04:38:00,42.1,35.5,30.20,North,0,0.0,0.0,77,0.00,,,-99.99,,2013-03-11 08:38:00,
2013-03-11 04:44:00,42.1,35.5,30.20,North,0,0.0,0.0,77,0.00,,,-99.99,,2013-03-11 08:44:00,
2013-03-11 04:50:00,42.1,35.5,30.20,North,0,0.0,0.0,77,0.00,,,-99.99,,2013-03-11 08:50:00,
2013-03-11 04:56:00,42.1,35.5,30.20,North,0,0.0,0.0,77,0.00,,,-99.99,,2013-03-11 08:56:00,
2013-03-11 05:02:00,42.1,35.5,30.20,North,0,0.0,0.0,77,0.00,,,-99.99,,2013-03-11 09:02:00,
2013-03-11 05:08:00,42.3,35.7,30.20,North,0,0.0,0.0,77,0.00,,,-99.99,,2013-03-11 09:08:00,
2013-03-11 05:14:00,42.3,35.7,30.17,North,0,0.0,0.0,77,0.00,,,-99.99,,2013-03-11 09:14:00,
2013-03-11 05:20:00,42.3,35.9,30.17,North,0,0.0,0.0,78,0.00,,,-99.99,,2013-03-11 09:20:00,
2013-03-11 05:26:00,42.3,35.9,30.17,North,0,0.0,0.0,78,0.00,,,-99.99,,2013-03-11 09:26:00,
2013-03-11 05:32:00,42.3,35.9,30.17,North,0,0.0,0.0,78,0.00,,,-99.99,,2013-03-11 09:32:00,
2013-03-11 05:38:00,42.3,35.9,30.17,North,0,0.0,0.0,78,0.00,,,-99.99,,2013-03-11 09:38:00,
2013-03-11 05:44:00,42.1,35.8,30.17,North,0,0.0,0.0,78,0.00,,,-99.99,,2013-03-11 09:44:00,
2013-03-11 05:50:00,42.1,35.8,30.17,North,0,0.0,0.0,78,0.00,,,-99.99,,2013-03-11 09:50:00,
2013-03-11 05:56:00,42.1,35.8,30.17,North,0,0.0,0.0,78,0.00,,,-99.99,,2013-03-11 09:56:00,
2013-03-11 06:02:00,42.1,35.8,30.17,North,0,0.0,0.0,78,0.00,,,-99.99,,2013-03-11 10:02:00,
2013-03-11 06:08:00,42.3,35.9,30.17,North,0,0.0,0.0,78,0.00,,,-99.99,,2013-03-11 10:08:00,
2013-03-11 06:14:00,42.3,36.2,30.17,North,0,0.0,0.0,78,0.00,,,-99.99,,2013-03-11 10:14:00,
2013-03-11 06:20:00,42.3,36.2,30.17,North,0,0.0,0.0,78,0.00,,,-99.99,,2013-03-11 10:20:00,
2013-03-11 06:26:00,42.3,36.2,30.17,North,0,0.0,0.0,78,0.00,,,-99.99,,2013-03-11 10:26:00,
2013-03-11 06:32:00,42.4,36.3,30.17,North,0,0.0,0.0,78,0.00,,,-99.99,,2013-03-11 10:32:00,
2013-03-11 06:38:00,42.4,36.3,30.17,North,0,0.0,0.0,78,0.00,,,-99.99,,2013-03-11 10:38:00,
2013-03-11 06:44:00,42.4,36.3,30.17,North,0,0.0,0.0,78,0.00,,,-99.99,,2013-03-11 10:44:00,
2013-03-11 06:50:00,42.4,36.3,30.17,North,0,0.0,0.0,78,0.00,,,-99.99,,2013-03-11 10:50:00,
2013-03-11 06:56:00,42.4,36.3,30.17,North,0,0.0,0.0,78,0.00,,,-99.99,,2013-03-11 10:56:00,
2013-03-11 07:02:00,42.4,36.6,30.17,North,0,0.0,0.0,79,0.00,,,-99.99,,2013-03-11 11:02:00,
2013-03-11 07:08:00,42.4,36.6,30.17,North,0,0.0,0.0,79,0.00,,,-99.99,,2013-03-11 11:08:00,
2013-03-11 07:14:00,42.6,36.8,30.17,North,0,0.0,0.0,79,0.00,,,-99.99,,2013-03-11 11:14:00,
2013-03-11 07:20:00,42.6,36.8,30.17,North,0,0.0,0.0,79,0.00,,,-99.99,,2013-03-11 11:20:00,
2013-03-11 07:26:00,42.6,36.8,30.17,North,0,0.0,0.0,79,0.00,,,-99.99,,2013-03-11 11:26:00,
2013-03-11 07:32:00,42.6,36.8,30.17,North,0,0.0,0.0,79,0.00,,,-99.99,,2013-03-11 11:32:00,
2013-03-11 07:38:00,42.8,37.0,30.17,North,0,0.0,0.0,79,0.00,,,-99.99,,2013-03-11 11:38:00,
2013-03-11 07:44:00,42.8,37.0,30.17,North,0,0.0,0.0,79,0.00,,,-99.99,,2013-03-11 11:44:00,
2013-03-11 07:50:00,42.8,37.0,30.17,North,0,0.0,0.0,79,0.00,,,-99.99,,2013-03-11 11:50:00,
2013-03-11 07:56:00,43.0,37.5,30.17,North,0,0.0,0.0,80,0.00,,,-99.99,,2013-03-11 11:56:00,
2013-03-11 08:02:00,43.0,37.5,30.14,North,0,0.0,0.0,80,0.00,,,-99.99,,2013-03-11 12:02:00,
2013-03-11 08:08:00,43.2,37.7,30.14,North,0,0.0,0.0,80,0.00,,,-99.99,,2013-03-11 12:08:00,
2013-03-11 08:14:00,43.3,38.0,30.17,North,0,0.0,0.0,81,0.00,,,-99.99,,2013-03-11 12:14:00,
2013-03-11 08:20:00,43.5,38.2,30.17,North,0,0.0,0.0,81,0.00,,,-99.99,,2013-03-11 12:20:00,
2013-03-11 08:26:00,43.5,38.2,30.17,North,0,0.0,0.0,81,0.00,,,-99.99,,2013-03-11 12:26:00,
2013-03-11 08:32:00,43.9,38.6,30.17,North,0,0.0,0.0,81,0.00,,,-99.99,,2013-03-11 12:32:00,
2013-03-11 08:38:00,44.1,39.1,30.17,North,0,0.0,0.0,82,0.00,,,-99.99,,2013-03-11 12:38:00,
2013-03-11 08:44:00,44.4,39.4,30.20,North,0,0.0,0.0,82,0.00,,,-99.99,,2013-03-11 12:44:00,
2013-03-11 08:50:00,44.6,39.3,30.20,North,0,0.0,0.0,81,0.00,,,-99.99,,2013-03-11 12:50:00,
2013-03-11 08:56:00,45.0,39.7,30.20,North,0,0.0,0.0,81,0.00,,,-99.99,,2013-03-11 12:56:00,
2013-03-11 09:02:00,45.1,39.8,30.20,North,0,0.0,0.0,81,0.00,,,-99.99,,2013-03-11 13:02:00,
2013-03-11 09:08:00,45.3,39.7,30.20,North,0,0.0,0.0,80,0.00,,,-99.99,,2013-03-11 13:08:00,
2013-03-11 09:14:00,45.5,39.9,30.20,North,0,0.0,0.0,80,0.00,,,-99.99,,2013-03-11 13:14:00,
2013-03-11 09:20:00,45.7,39.8,30.20,North,0,0.0,0.0,79,0.00,,,-99.99,,2013-03-11 13:20:00,
2013-03-11 09:26:00,46.0,39.8,30.20,North,0,0.0,0.0,78,0.00,,,-99.99,,2013-03-11 13:26:00,
2013-03-11 09:32:00,46.2,39.7,30.23,North,0,0.0,0.0,78,0.00,,,-99.99,,2013-03-11 13:32:00,
2013-03-11 09:38:00,46.4,39.6,30.23,North,0,0.0,0.0,77,0.00,,,-99.99,,2013-03-11 13:38:00,
2013-03-11 09:44:00,46.6,39.2,30.20,North,0,0.0,0.0,75,0.00,,,-99.99,,2013-03-11 13:44:00,
2013-03-11 09:50:00,46.9,39.2,30.20,North,0,0.0,0.0,74,0.00,,,-99.99,,2013-03-11 13:50:00,
2013-03-11 09:56:00,47.1,38.4,30.20,North,0,0.0,0.0,71,0.00,,,-99.99,,2013-03-11 13:56:00,
2013-03-11 10:02:00,47.1,38.1,30.20,North,0,0.0,0.0,70,0.00,,,-99.99,,2013-03-11 14:02:00,
2013-03-11 10:08:00,47.1,37.7,30.20,North,0,0.0,0.0,69,0.00,,,-99.99,,2013-03-11 14:08:00,
2013-03-11 10:14:00,47.3,37.6,30.20,North,0,0.0,0.0,68,0.00,,,-99.99,,2013-03-11 14:14:00,
2013-03-11 10:20:00,47.5,37.4,30.20,North,0,0.0,0.0,67,0.00,,,-99.99,,2013-03-11 14:20:00,
2013-03-11 10:26:00,47.8,36.9,30.20,North,0,0.0,0.0,65,0.00,,,-99.99,,2013-03-11 14:26:00,
2013-03-11 10:32:00,48.4,37.1,30.20,North,0,0.0,0.0,64,0.00,,,-99.99,,2013-03-11 14:32:00,
2013-03-11 10:38:00,48.9,37.6,30.20,North,0,0.0,0.0,64,0.00,,,-99.99,,2013-03-11 14:38:00,
2013-03-11 10:44:00,49.3,37.2,30.20,North,0,0.0,0.0,62,0.00,,,-99.99,,2013-03-11 14:44:00,
2013-03-11 10:50:00,49.5,36.5,30.20,North,0,0.0,0.0,60,0.00,,,-99.99,,2013-03-11 14:50:00,
2013-03-11 10:56:00,49.8,36.8,30.20,North,0,0.0,0.0,60,0.00,,,-99.99,,2013-03-11 14:56:00,
2013-03-11 11:02:00,50.2,36.8,30.20,North,0,0.0,0.0,59,0.00,,,-99.99,,2013-03-11 15:02:00,
2013-03-11 11:08:00,50.4,36.1,30.20,North,0,0.0,0.0,57,0.00,,,-99.99,,2013-03-11 15:08:00,
2013-03-11 11:14:00,50.7,35.9,30.20,North,0,0.0,0.0,56,0.00,,,-99.99,,2013-03-11 15:14:00,
2013-03-11 11:20:00,51.4,36.5,30.20,North,0,0.0,0.0,56,0.00,,,-99.99,,2013-03-11 15:20:00,
2013-03-11 11:26:00,51.8,36.0,30.20,North,0,0.0,0.0,54,0.00,,,-99.99,,2013-03-11 15:26:00,
2013-03-11 11:32:00,52.2,35.4,30.20,North,0,0.0,0.0,52,0.00,,,-99.99,,2013-03-11 15:32:00,
2013-03-11 11:38:00,52.7,35.8,30.20,North,0,0.0,0.0,52,0.00,,,-99.99,,2013-03-11 15:38:00,
2013-03-11 11:44:00,53.1,35.7,30.20,North,0,0.0,0.0,51,0.00,,,-99.99,,2013-03-11 15:44:00,
2013-03-11 11:50:00,53.2,35.3,30.20,North,0,0.0,0.0,50,0.00,,,-99.99,,2013-03-11 15:50:00,
2013-03-11 11:56:00,53.8,35.8,30.20,North,0,0.0,0.0,50,0.00,,,-99.99,,2013-03-11 15:56:00,
2013-03-11 12:02:00,54.5,35.9,30.20,North,0,0.0,0.0,49,0.00,,,-99.99,,2013-03-11 16:02:00,
2013-03-11 12:08:00,55.2,36.6,30.20,North,0,0.0,0.0,49,0.00,,,-99.99,,2013-03-11 16:08:00,
2013-03-11 12:14:00,55.9,36.6,30.20,North,0,0.0,0.0,48,0.00,,,-99.99,,2013-03-11 16:14:00,
2013-03-11 12:20:00,56.5,37.2,30.20,North,0,0.0,0.0,48,0.00,,,-99.99,,2013-03-11 16:20:00,
2013-03-11 12:26:00,56.5,36.6,30.20,North,0,0.0,0.0,47,0.00,,,-99.99,,2013-03-11 16:26:00,
2013-03-11 12:32:00,56.5,37.2,30.20,North,0,0.0,0.0,48,0.00,,,-99.99,,2013-03-11 16:32:00,
2013-03-11 12:38:00,56.8,36.9,30.20,North,0,0.0,0.0,47,0.00,,,-99.99,,2013-03-11 16:38:00,
2013-03-11 12:44:00,56.8,36.9,30.20,North,0,0.0,0.0,47,0.00,,,-99.99,,2013-03-11 16:44:00,
2013-03-11 12:50:00,56.8,36.9,30.20,North,0,0.0,0.0,47,0.00,,,-99.99,,2013-03-11 16:50:00,
2013-03-11 12:56:00,56.8,37.5,30.20,North,0,0.0,0.0,48,0.00,,,-99.99,,2013-03-11 16:56:00,
2013-03-11 13:02:00,57.0,37.7,30.20,North,0,0.0,0.0,48,0.00,,,-99.99,,2013-03-11 17:02:00,
2013-03-11 13:08:00,57.4,37.5,30.20,North,0,0.0,0.0,47,0.00,,,-99.99,,2013-03-11 17:08:00,
2013-03-11 13:14:00,58.3,38.3,30.20,North,0,0.0,0.0,47,0.00,,,-99.99,,2013-03-11 17:14:00,
2013-03-11 13:20:00,59.2,39.1,30.20,North,0,0.0,0.0,47,0.00,,,-99.99,,2013-03-11 17:20:00,
2013-03-11 13:26:00,59.5,38.8,30.20,North,0,0.0,0.0,46,0.00,,,-99.99,,2013-03-11 17:26:00,
2013-03-11 13:32:00,59.7,39.0,30.20,North,0,0.0,0.0,46,0.00,,,-99.99,,2013-03-11 17:32:00,
2013-03-11 13:38:00,58.8,38.1,30.20,North,0,0.0,0.0,46,0.00,,,-99.99,,2013-03-11 17:38:00,
2013-03-11 13:44:00,57.9,37.9,30.20,North,0,0.0,0.0,47,0.00,,,-99.99,,2013-03-11 17:44:00,
2013-03-11 13:50:00,57.2,37.3,30.20,North,0,0.0,0.0,47,0.00,,,-99.99,,2013-03-11 17:50:00,
2013-03-11 13:56:00,56.8,37.5,30.20,North,0,0.0,0.0,48,0.00,,,-99.99,,2013-03-11 17:56:00,
2013-03-11 14:02:00,56.3,37.0,30.20,North,0,0.0,0.0,48,0.00,,,-99.99,,2013-03-11 18:02:00,
2013-03-11 14:08:00,56.3,37.0,30.20,North,0,0.0,0.0,48,0.00,,,-99.99,,2013-03-11 18:08:00,
2013-03-11 14:14:00,56.1,37.4,30.17,North,0,0.0,0.0,49,0.00,,,-99.99,,2013-03-11 18:14:00,
2013-03-11 14:20:00,56.3,37.6,30.17,North,0,0.0,0.0,49,0.00,,,-99.99,,2013-03-11 18:20:00,
2013-03-11 14:26:00,56.3,37.6,30.17,North,0,0.0,0.0,49,0.00,,,-99.99,,2013-03-11 18:26:00,
2013-03-11 14:32:00,56.3,37.6,30.17,North,0,0.0,0.0,49,0.00,,,-99.99,,2013-03-11 18:32:00,
2013-03-11 14:38:00,56.3,37.6,30.17,North,0,0.0,0.0,49,0.00,,,-99.99,,2013-03-11 18:38:00,
2013-03-11 14:44:00,56.5,37.8,30.14,North,0,0.0,0.0,49,0.00,,,-99.99,,2013-03-11 18:44:00,
2013-03-11 14:50:00,56.7,38.5,30.14,North,0,0.0,0.0,50,0.00,,,-99.99,,2013-03-11 18:50:00,
2013-03-11 14:56:00,56.8,38.6,30.14,North,0,0.0,0.0,50,0.00,,,-99.99,,2013-03-11 18:56:00,
2013-03-11 15:02:00,57.2,38.4,30.14,North,0,0.0,0.0,49,0.00,,,-99.99,,2013-03-11 19:02:00,
2013-03-11 15:08:00,57.6,38.8,30.14,North,0,0.0,0.0,49,0.00,,,-99.99,,2013-03-11 19:08:00,
2013-03-11 15:14:00,58.1,39.2,30.14,North,0,0.0,0.0,49,0.00,,,-99.99,,2013-03-11 19:14:00,
2013-03-11 15:20:00,58.5,39.6,30.14,North,0,0.0,0.0,49,0.00,,,-99.99,,2013-03-11 19:20:00,
2013-03-11 15:26:00,58.6,39.1,30.14,North,0,0.0,0.0,48,0.00,,,-99.99,,2013-03-11 19:26:00,
2013-03-11 15:32:00,58.8,39.3,30.14,North,0,0.0,0.0,48,0.00,,,-99.99,,2013-03-11 19:32:00,
2013-03-11 15:38:00,58.8,39.3,30.14,North,0,0.0,0.0,48,0.00,,,-99.99,,2013-03-11 19:38:00,
2013-03-11 15:44:00,58.6,39.1,30.14,North,0,0.0,0.0,48,0.00,,,-99.99,,2013-03-11 19:44:00,
2013-03-11 15:50:00,58.5,39.0,30.14,North,0,0.0,0.0,48,0.00,,,-99.99,,2013-03-11 19:50:00,
2013-03-11 15:56:00,58.1,38.7,30.14,North,0,0.0,0.0,48,0.00,,,-99.99,,2013-03-11 19:56:00,
2013-03-11 16:02:00,57.9,39.0,30.14,North,0,0.0,0.0,49,0.00,,,-99.99,,2013-03-11 20:02:00,
2013-03-11 16:08:00,57.9,39.0,30.14,North,0,0.0,0.0,49,0.00,,,-99.99,,2013-03-11 20:08:00,
2013-03-11 16:14:00,57.9,39.0,30.14,North,0,0.0,0.0,49,0.00,,,-99.99,,2013-03-11 20:14:00,
2013-03-11 16:20:00,57.7,38.9,30.14,North,0,0.0,0.0,49,0.00,,,-99.99,,2013-03-11 20:20:00,
2013-03-11 16:26:00,57.7,38.9,30.14,North,0,0.0,0.0,49,0.00,,,-99.99,,2013-03-11 20:26:00,
2013-03-11 16:32:00,57.7,38.9,30.11,North,0,0.0,0.0,49,0.00,,,-99.99,,2013-03-11 20:32:00,
2013-03-11 16:38:00,57.6,38.8,30.11,North,0,0.0,0.0,49,0.00,,,-99.99,,2013-03-11 20:38:00,
2013-03-11 16:44:00,57.2,38.4,30.11,North,0,0.0,0.0,49,0.00,,,-99.99,,2013-03-11 20:44:00,
2013-03-11 16:50:00,57.0,38.8,30.11,North,0,0.0,0.0,50,0.00,,,-99.99,,2013-03-11 20:50:00,
2013-03-11 16:56:00,57.0,39.3,30.11,North,0,0.0,0.0,51,0.00,,,-99.99,,2013-03-11 20:56:00,
2013-03-11 17:02:00,57.0,39.3,30.11,North,0,0.0,0.0,51,0.00,,,-99.99,,2013-03-11 21:02:00,
2013-03-11 17:08:00,57.0,39.3,30.11,North,0,0.0,0.0,51,0.00,,,-99.99,,2013-03-11 21:08:00,
2013-03-11 17:14:00,57.0,39.3,30.08,North,0,0.0,0.0,51,0.00,,,-99.99,,2013-03-11 21:14:00,
2013-03-11 17:20:00,56.8,39.6,30.08,North,0,0.0,0.0,52,0.00,,,-99.99,,2013-03-11 21:20:00,
2013-03-11 17:26:00,56.8,39.6,30.08,North,0,0.0,0.0,52,0.00,,,-99.99,,2013-03-11 21:26:00,
2013-03-11 17:32:00,56.8,40.1,30.08,North,0,0.0,0.0,53,0.00,,,-99.99,,2013-03-11 21:32:00,
2013-03-11 17:38:00,56.8,40.1,30.08,North,0,0.0,0.0,53,0.00,,,-99.99,,2013-03-11 21:38:00,
2013-03-11 17:44:00,56.8,40.6,30.08,North,0,0.0,0.0,54,0.00,,,-99.99,,2013-03-11 21:44:00,
2013-03-11 17:50:00,56.7,40.5,30.08,North,0,0.0,0.0,54,0.00,,,-99.99,,2013-03-11 21:50:00,
2013-03-11 17:56:00,56.7,41.0,30.08,North,0,0.0,0.0,55,0.00,,,-99.99,,2013-03-11 21:56:00,
2013-03-11 18:02:00,56.5,40.8,30.08,North,0,0.0,0.0,55,0.00,,,-99.99,,2013-03-11 22:02:00,
2013-03-11 18:08:00,56.3,40.6,30.08,North,0,0.0,0.0,55,0.00,,,-99.99,,2013-03-11 22:08:00,
2013-03-11 18:14:00,56.3,41.1,30.08,North,0,0.0,0.0,56,0.00,,,-99.99,,2013-03-11 22:14:00,
2013-03-11 18:20:00,55.9,40.8,30.08,North,0,0.0,0.0,56,0.00,,,-99.99,,2013-03-11 22:20:00,
2013-03-11 18:26:00,55.9,40.8,30.08,North,0,0.0,0.0,56,0.00,,,-99.99,,2013-03-11 22:26:00,
2013-03-11 18:32:00,55.6,40.9,30.08,North,0,0.0,0.0,57,0.00,,,-99.99,,2013-03-11 22:32:00,
2013-03-11 18:38:00,55.4,40.8,30.08,North,0,0.0,0.0,57,0.00,,,-99.99,,2013-03-11 22:38:00,
2013-03-11 18:44:00,55.2,41.0,30.08,North,0,0.0,0.0,58,0.00,,,-99.99,,2013-03-11 22:44:00,
2013-03-11 18:50:00,55.0,40.8,30.08,North,0,0.0,0.0,58,0.00,,,-99.99,,2013-03-11 22:50:00,
2013-03-11 18:56:00,54.9,40.7,30.08,North,0,0.0,0.0,58,0.00,,,-99.99,,2013-03-11 22:56:00,
2013-03-11 19:02:00,54.7,40.5,30.08,North,0,0.0,0.0,58,0.00,,,-99.99,,2013-03-11 23:02:00,
2013-03-11 19:08:00,54.7,40.5,30.08,North,0,0.0,0.0,58,0.00,,,-99.99,,2013-03-11 23:08:00,
2013-03-11 19:14:00,54.5,40.8,30.08,North,0,0.0,0.0,59,0.00,,,-99.99,,2013-03-11 23:14:00,
2013-03-11 19:20:00,54.5,40.8,30.08,North,0,0.0,0.0,59,0.00,,,-99.99,,2013-03-11 23:20:00,
2013-03-11 19:26:00,54.5,40.8,30.08,North,0,0.0,0.0,59,0.00,,,-99.99,,2013-03-11 23:26:00,
2013-03-11 19:32:00,54.3,40.6,30.05,North,0,0.0,0.0,59,0.00,,,-99.99,,2013-03-11 23:32:00,
2013-03-11 19:38:00,54.3,40.6,30.05,North,0,0.0,0.0,59,0.00,,,-99.99,,2013-03-11 23:38:00,
2013-03-11 19:44:00,54.3,40.6,30.05,North,0,0.0,0.0,59,0.00,,,-99.99,,2013-03-11 23:44:00,
2013-03-11 19:50:00,54.3,40.6,30.02,North,0,0.0,0.0,59,0.00,,,-99.99,,2013-03-11 23:50:00,
2013-03-11 19:56:00,54.3,40.6,30.02,North,0,0.0,0.0,59,0.00,,,-99.99,,2013-03-11 23:56:00,
2013-03-11 20:02:00,54.3,40.6,30.05,North,0,0.0,0.0,59,0.00,,,-99.99,,2013-03-12 00:02:00,
2013-03-11 20:08:00,54.3,40.6,30.05,North,0,0.0,0.0,59,0.00,,,-99.99,,2013-03-12 00:08:00,
2013-03-11 20:14:00,54.3,41.1,30.05,North,0,0.0,0.0,60,0.00,,,-99.99,,2013-03-12 00:14:00,
2013-03-11 20:20:00,54.5,41.2,30.05,North,0,0.0,0.0,60,0.00,,,-99.99,,2013-03-12 00:20:00,
2013-03-11 20:26:00,54.5,41.2,30.05,North,0,0.0,0.0,60,0.00,,,-99.99,,2013-03-12 00:26:00,
2013-03-11 20:32:00,54.7,41.4,30.05,North,0,0.0,0.0,60,0.00,,,-99.99,,2013-03-12 00:32:00,
2013-03-11 20:38:00,54.7,41.4,30.05,North,0,0.0,0.0,60,0.00,,,-99.99,,2013-03-12 00:38:00,
2013-03-11 20:44:00,54.7,41.0,30.05,North,0,0.0,0.0,59,0.00,,,-99.99,,2013-03-12 00:44:00,
2013-03-11 20:50:00,54.7,41.0,30.05,North,0,0.0,0.0,59,0.00,,,-99.99,,2013-03-12 00:50:00,
2013-03-11 20:56:00,54.7,41.0,30.05,North,0,0.0,0.0,59,0.00,,,-99.99,,2013-03-12 00:56:00,
2013-03-11 21:02:00,54.7,41.0,30.05,North,0,0.0,0.0,59,0.00,,,-99.99,,2013-03-12 01:02:00,
2013-03-11 21:08:00,54.7,41.0,30.05,North,0,0.0,0.0,59,0.00,,,-99.99,,2013-03-12 01:08:00,
2013-03-11 21:14:00,54.7,40.5,30.05,North,0,0.0,0.0,58,0.00,,,-99.99,,2013-03-12 01:14:00,
2013-03-11 21:20:00,54.7,40.5,30.05,North,0,0.0,0.0,58,0.00,,,-99.99,,2013-03-12 01:20:00,
2013-03-11 21:26:00,54.5,40.4,30.05,North,0,0.0,0.0,58,0.00,,,-99.99,,2013-03-12 01:26:00,
2013-03-11 21:32:00,54.5,40.4,30.05,North,0,0.0,0.0,58,0.00,,,-99.99,,2013-03-12 01:32:00,
2013-03-11 21:38:00,54.5,40.4,30.05,North,0,0.0,0.0,58,0.00,,,-99.99,,2013-03-12 01:38:00,
2013-03-11 21:44:00,54.3,40.2,30.05,North,0,0.0,0.0,58,0.00,,,-99.99,,2013-03-12 01:44:00,
2013-03-11 21:50:00,54.1,40.0,30.05,North,0,0.0,0.0,58,0.00,,,-99.99,,2013-03-12 01:50:00,
2013-03-11 21:56:00,54.1,40.0,30.05,North,0,0.0,0.0,58,0.00,,,-99.99,,2013-03-12 01:56:00,
2013-03-11 22:02:00,54.1,40.0,30.05,North,0,0.0,0.0,58,0.00,,,-99.99,,2013-03-12 02:02:00,
2013-03-11 22:08:00,54.0,39.9,30.05,North,0,0.0,0.0,58,0.00,,,-99.99,,2013-03-12 02:08:00,
2013-03-11 22:14:00,54.0,39.9,30.08,North,0,0.0,0.0,58,0.00,,,-99.99,,2013-03-12 02:14:00,
2013-03-11 22:20:00,53.8,39.7,30.08,North,0,0.0,0.0,58,0.00,,,-99.99,,2013-03-12 02:20:00,
2013-03-11 22:26:00,53.6,39.5,30.08,North,0,0.0,0.0,58,0.00,,,-99.99,,2013-03-12 02:26:00,
2013-03-11 22:32:00,53.4,39.3,30.08,North,0,0.0,0.0,58,0.00,,,-99.99,,2013-03-12 02:32:00,
2013-03-11 22:38:00,53.4,39.8,30.08,North,0,0.0,0.0,59,0.00,,,-99.99,,2013-03-12 02:38:00,
2013-03-11 22:44:00,53.4,39.8,30.08,North,0,0.0,0.0,59,0.00,,,-99.99,,2013-03-12 02:44:00,
2013-03-11 22:50:00,53.2,39.6,30.08,North,0,0.0,0.0,59,0.00,,,-99.99,,2013-03-12 02:50:00,
2013-03-11 22:56:00,53.2,39.6,30.08,North,0,0.0,0.0,59,0.00,,,-99.99,,2013-03-12 02:56:00,
2013-03-11 23:02:00,53.2,39.6,30.08,North,0,0.0,0.0,59,0.00,,,-99.99,,2013-03-12 03:02:00,
2013-03-11 23:08:00,53.1,39.5,30.08,North,0,0.0,0.0,59,0.00,,,-99.99,,2013-03-12 03:08:00,
2013-03-11 23:14:00,53.1,39.5,30.02,North,0,0.0,0.0,59,0.00,,,-99.99,,2013-03-12 03:14:00,
2013-03-11 23:20:00,53.1,39.5,30.02,North,0,0.0,0.0,59,0.00,,,-99.99,,2013-03-12 03:20:00,
2013-03-11 23:26:00,53.1,39.5,30.02,North,0,0.0,0.0,59,0.00,,,-99.99,,2013-03-12 03:26:00,
2013-03-11 23:32:00,53.1,39.5,29.99,North,0,0.0,0.0,59,0.00,,,-99.99,,2013-03-12 03:32:00,
2013-03-11 23:38:00,52.9,39.3,29.99,North,0,0.0,0.0,59,0.00,,,-99.99,,2013-03-12 03:38:00,
2013-03-11 23:44:00,52.9,39.3,30.02,North,0,0.0,0.0,59,0.00,,,-99.99,,2013-03-12 03:44:00,
2013-03-11 23:50:00,52.9,39.3,30.02,North,0,0.0,0.0,59,0.00,,,-99.99,,2013-03-12 03:50:00,
2013-03-11 23:56:00,52.9,39.7,30.02,North,0,0.0,0.0,60,0.00,,,-99.99,,2013-03-12 03:56:00,